{"data":{"norad_id":43643,"epoch":"2026-05-25T05:08:09.614688Z","epoch_age_seconds":52406,"freshness":"FRESH","line1":"1 43643U 18077B   26145.21400017  .00000574  00000+0  12074-3 0  9998","line2":"2 43643  98.1495 173.9887 0004522 299.3983  60.6767 14.63138972406474","mean_motion":14.63138972,"eccentricity":0.0004522,"inclination_deg":98.1495,"raan_deg":173.9887,"arg_perigee_deg":299.3983,"mean_anomaly_deg":60.6767,"bstar":0.00012074,"rev_number":40647,"period_min":98.418539014898,"perigee_km":679.86358607309,"apogee_km":686.24972961725,"semimajor_km":7061.1936578452,"source":"CELESTRAK","updated_at":"2026-05-25T13:37:55.864131Z"}}